PSLV R/B

基本信息
目录编号:
57755
目录名称:
PSLV R/B
国际标识:
2023-132B
轨道中心:
EARTH
物体状态:
在轨
发射日期:
2023-09-02 UTC
国别:
印度 (IN)
轨道信息
数据来源: 国际轨道数据
星历时间: 2026-07-13T15:47:36+0800
半长轴: 14977.083km
偏心率: 0.5596153
轨道倾角: 19.142°
近地点辐角: 296.738°
升交点赤经: 145.621°
平近点角: 17.295°
近地点: 217.541km
远地点: 16980.351km
周期: 304.019分钟
每日圈数: 4.736548
详细信息
发射场:
SRI
轨道高度:
LEO
数据来源:
AOE Integration Group
参考系:
TEME
时间系统:
UTC
历元类型:
SGP4
2D轨道图
3D轨道图
轨道高度分析图
轨道倾角分析图
轨道综合分析图
查看轨道综合分析图